User: anonymous   Login
Location: Morlupo
(42.1333°N, 12.5000°E)
Time: 07:35:24
(UTC+00:00)
Language:

Abrixas rocket - Orbit

View from above orbital plane
View from above orbital plane
View from above satellite
View from above satellite

Ground track
Ground track

The orbit data is extracted from the following two-line orbital elements,

1 25723U 99022C   20336.86723521  .00071523  00000-0  32434-3 0  9996
2 25723  48.4083 160.0143 0001654 172.4322 187.6660 15.83159277204097
Epoch (UTC): 01 December 2020 20:48:49
Eccentricity: 0.0001654
inclination: 48.4083°
perigee height: 320 km
apogee height: 322 km
right ascension of ascending node: 160.0143°
argument of perigee: 172.4322°
revolutions per day: 15.83159277
mean anomaly at epoch: 187.6660°
orbit number at epoch: 20409

The dashed part of the orbit path shows where the satellite is in the earth's shadow,  

DLR